Location: Prescott
(34.5400°N, 112.4680°W)
Time: 20:14:21
(UTC-07:00)

Envisat - Visible Passes

Search period start: 20 February 2019 00:00
Search period end: 02 March 2019 00:00
Orbit: 764 x 766 km, 98.2° (Epoch: 20 February)

Date Brightness Start Highest point End Pass type
(mag) Time Alt. Az. Time Alt. Az. Time Alt. Az.
20 Feb 5.3 20:11:20 10° SSW 20:15:25 24° W 20:19:33 10° NW visible
21 Feb 3.6 19:33:33 10° S 19:38:33 59° W 19:43:33 10° NNW visible
22 Feb 3.0 18:56:52 10° SSE 19:01:50 58° ENE 19:06:49 10° N visible
22 Feb 6.1 20:38:52 10° WSW 20:41:10 13° W 20:43:29 10° WNW visible
23 Feb 4.8 19:59:41 10° SSW 20:04:09 31° W 20:08:40 10° NW visible
24 Feb 6.8 06:36:04 10° E 06:37:06 11° E 06:38:09 10° ESE visible
24 Feb 3.2 19:22:16 10° S 19:27:19 77° WSW 19:32:25 10° NNW visible
25 Feb 3.3 18:45:52 10° SE 18:50:40 45° ENE 18:55:29 10° N visible
25 Feb 5.8 20:26:35 10° SW 20:29:52 17° W 20:33:09 10° NW visible
26 Feb 4.3 19:48:08 10° SSW 19:52:54 41° W 19:57:41 10° NNW visible
27 Feb 2.9 19:11:03 10° SSE 19:16:08 83° ENE 19:21:14 10° N visible
28 Feb 5.4 20:14:40 10° SW 20:18:34 22° W 20:22:29 10° NW visible
01 Mar 3.8 19:36:43 10° S 19:41:40 53° W 19:46:38 10° NNW visible
